Wind_Speed
21 22 22 23 23 20 18 16 17 11 12 19 15 13 14 19 25 25 22 24 23 23 23 20 17 16 15 17 19 18 19 18 18 18 18 18 20 20
26 27 27 27 26 24 23 19 19 21 13 21 22 25 25 22 20 25 21 23 24 21 21 21 21 19 17 16 18 19 20 21 21 22 21 22 23 20
28 29 29 27 24 21 21 21 22 21 16 30 24 21 26 25 23 18 21 22 22 21 20 19 20 20 21 18 17 17 19 19 19 20 22 19 24 21
29 28 30 26 24 26 21 22 22 23 21 24 27 22 21 24 25 22 22 21 19 21 22 22 23 21 22 22 18 16 18 19 18 18 19 19 23 24
31 28 29 27 24 25 24 23 22 22 21 22 29 24 22 21 25 22 17 17 16 17 16 16 18 18 20 22 20 18 17 19 19 19 19 21 22 21
34 33 31 29 27 28 25 25 24 22 21 21 23 24 22 21 20 20 21 14 14 14 15 15 14 15 17 18 21 20 17 16 15 17 18 20 23 24
34 35 35 34 30 29 23 23 21 21 20 20 20 20 20 19 19 16 17 20 19 17 16 14 11 9 9 10 16 21 18 18 20 22 22 22 22 22
32 33 32 35 31 29 28 28 28 27 24 22 21 19 25 19 17 16 15 14 9 7 6 12 13 16 15 17 17 16 21 22 22 23 23 23 22 21
33 33 32 29 30 31 32 27 27 28 30 30 26 27 25 23 17 17 15 13 15 14 11 16 13 17 17 20 20 21 21 20 22 23 24 24 22 21
33 34 33 31 31 30 26 25 27 27 30 31 29 31 27 25 21 20 19 17 16 15 12 13 16 18 19 21 21 20 21 22 21 23 26 23 17 19
32 33 31 31 31 31 25 25 26 28 31 26 26 29 28 27 23 18 16 15 14 16 10 12 11 12 15 22 17 19 21 21 20 19 16 15 17 18
30 29 30 29 28 29 26 24 24 28 24 21 23 27 26 25 23 22 19 16 13 10 6 4 7 8 7 10 9 16 13 10 11 9 11 14 17 18
26 25 26 29 28 27 26 26 26 26 24 22 21 24 21 22 26 24 22 18 12 14 12 11 12 10 8 12 17 18 17 17 16 12 13 12 12 15
26 25 25 26 29 29 28 26 27 26 25 21 19 18 19 21 25 23 22 20 19 19 19 15 13 10 10 10 11 15 16 16 17 16 14 17 15 13
29 29 31 31 29 30 29 29 27 24 21 17 15 18 22 25 25 23 21 19 17 18 23 21 23 21 18 16 12 16 16 14 18 17 15 16 13 10
30 30 30 31 28 28 27 26 24 21 21 20 18 20 21 23 24 24 23 20 21 18 27 22 21 23 20 20 18 21 18 13 12 14 17 13 12 14
29 25 25 23 22 21 23 25 24 25 23 22 19 20 20 19 22 22 20 17 15 16 17 18 14 20 23 21 19 22 21 19 24 26 22 19 21 15
28 22 16 17 18 18 18 19 20 22 21 22 21 20 19 18 17 15 15 14 15 16 17 17 12 15 16 20 25 24 23 21 23 26 24 18 18 16
20 20 17 17 17 18 20 20 20 20 23 21 20 20 19 18 17 16 13 13 14 15 17 17 15 16 9 11 18 18 19 18 21 21 23 19 14 11
17 16 17 15 15 16 16 18 19 19 18 20 19 20 19 17 14 16 16 16 16 17 17 19 18 18 11 13 11 17 19 22 20 18 17 19 16 13
17 17 17 18 18 17 18 19 19 19 17 18 18 19 19 18 17 18 17 18 18 18 17 17 20 21 24 21 12 18 21 22 24 21 16 15 7 6
19 19 19 19 19 19 19 20 20 20 18 18 19 18 18 18 17 18 19 18 18 19 19 16 19 22 22 16 14 18 9 16 19 17 16 17 8 5
21 21 21 20 19 20 20 19 18 18 17 18 17 15 17 16 18 19 18 18 18 18 17 14 15 17 20 21 22 15 11 11 15 14 9 11 9 5
Wind_Direction
286 292 292 294 294 288 281 276 274 288 284 284 281 284 269 293 301 303 294 288 283 281 282 279 276 285 289 278 269 267 264 261 259 261 264 261 264 260
285 289 288 285 287 285 281 276 268 266 279 275 269 277 287 287 282 291 284 284 280 277 278 271 270 274 275 283 279 271 265 260 257 259 259 259 258 257
290 291 285 282 282 279 277 277 273 268 270 285 278 275 284 289 290 278 279 279 277 271 270 271 272 270 264 269 277 275 261 255 253 258 261 260 260 258
285 286 281 281 277 282 275 273 271 272 265 278 285 281 272 286 285 282 276 273 270 271 266 267 269 271 264 261 265 272 267 263 265 265 268 265 258 256
289 279 276 277 275 277 274 272 272 272 266 262 278 282 276 279 284 281 275 272 268 277 274 268 265 264 261 258 256 261 266 268 267 264 266 269 267 263
290 286 278 275 274 275 272 270 270 267 266 263 269 278 276 275 270 277 286 275 270 280 278 281 282 267 261 253 250 255 261 265 268 271 277 277 267 269
283 281 278 276 277 277 265 267 264 262 263 263 266 272 270 269 264 277 280 287 286 272 274 279 277 275 269 265 256 252 255 272 273 279 280 284 276 270
279 277 273 276 273 275 271 264 262 261 259 258 261 261 263 261 268 270 275 281 290 277 285 282 292 287 280 282 282 274 265 273 274 281 280 284 281 277
282 278 274 268 272 274 279 274 267 261 258 259 253 253 260 259 261 267 264 265 271 277 297 294 292 290 289 289 286 278 275 278 277 279 280 281 277 272
281 278 271 267 270 273 274 273 273 270 268 264 257 257 254 257 254 262 263 263 270 274 282 283 293 284 288 291 285 281 276 279 279 279 278 277 265 266
282 277 269 269 276 278 270 265 269 269 275 268 264 264 260 256 253 258 251 247 256 267 270 285 288 303 298 294 299 296 279 274 274 279 273 261 263 260
286 279 271 271 271 272 268 263 262 266 271 268 273 270 258 252 247 244 254 249 252 279 278 240 291 319 310 288 289 316 335 283 256 262 276 271 259 254
285 283 271 275 274 272 270 267 261 269 271 265 258 266 265 254 249 246 250 243 229 246 252 281 283 281 259 287 291 297 314 308 286 290 283 284 274 257
285 282 273 274 275 275 273 270 268 270 269 261 261 253 255 253 248 249 248 247 248 253 267 265 270 268 267 275 280 292 299 291 290 290 285 289 283 274
285 279 277 273 271 271 270 268 268 268 266 261 248 248 255 266 255 250 256 255 257 259 266 262 266 267 257 257 266 277 285 283 291 276 271 282 285 291
281 275 270 270 269 269 269 263 260 256 256 257 255 257 263 265 259 250 249 248 260 263 270 270 267 262 250 252 265 270 265 253 277 268 263 259 276 289
286 280 263 256 258 258 258 260 264 261 255 255 256 255 253 249 248 246 236 244 243 253 253 264 265 264 251 252 253 258 265 258 257 262 251 260 274 273
304 280 272 262 249 248 250 253 250 251 250 253 252 251 250 242 235 233 241 240 247 247 243 255 265 265 259 261 253 254 249 252 249 253 244 247 263 261
307 300 275 269 263 242 245 247 248 247 257 246 245 241 243 245 245 234 232 228 242 249 245 256 255 227 243 253 260 253 248 242 236 231 238 230 239 250
307 306 308 289 281 269 253 247 249 252 245 245 244 243 239 237 236 227 218 222 233 246 252 251 243 240 241 255 271 271 252 241 235 232 223 231 240 250
312 309 305 303 296 285 276 261 253 252 250 246 241 242 237 231 232 234 228 232 241 244 252 249 241 252 249 255 260 257 251 245 244 230 219 202 177 208
317 306 300 295 296 292 285 273 262 252 246 246 239 238 237 236 236 233 232 233 240 248 256 249 249 244 242 255 269 257 232 239 232 235 234 206 173 203
331 324 319 303 293 293 290 294 263 254 250 246 241 246 247 241 241 241 237 232 238 248 246 250 247 248 256 253 253 248 215 202 190 167 170 202 204 195
Height
822 820 818 816 815 813 811 810 806 796 790 790 790 787 784 783 780 778 777 775 773 771 770 770 769 767 766 764 765 765 766 765 765 764 764 763 764 766
814 812 810 809 807 805 803 802 800 796 785 787 784 782 780 777 776 774 771 768 767 764 763 762 763 761 761 761 761 758 758 759 760 761 761 760 761 760
808 805 802 801 799 798 796 794 792 791 785 774 778 778 774 772 770 768 765 762 759 758 756 755 755 756 756 756 756 754 755 754 755 754 756 755 756 754
800 797 794 793 791 790 788 786 784 783 782 775 770 771 770 767 763 761 759 755 753 750 749 749 748 748 748 749 749 749 749 748 747 749 750 749 753 749
791 788 785 784 783 782 780 778 776 774 773 771 763 764 763 762 757 753 751 748 746 744 743 741 741 741 741 741 742 744 744 743 743 743 744 744 746 744
781 778 776 775 774 773 771 770 768 767 765 764 761 757 756 755 753 749 746 744 741 739 738 737 736 735 735 735 736 737 737 737 737 737 735 736 737 734
771 769 766 764 764 763 763 761 760 759 758 756 754 751 749 747 746 745 742 739 736 735 733 732 731 730 729 729 729 731 732 732 732 732 730 728 726 725
763 759 756 755 753 753 753 752 752 751 749 748 745 744 740 741 740 740 739 736 732 730 729 727 727 724 724 723 723 723 724 724 724 723 722 719 717 715
755 751 748 746 745 744 743 742 741 740 740 738 735 733 733 733 734 733 733 731 728 727 726 723 722 720 718 715 714 715 715 715 714 714 712 712 711 710
746 743 740 738 737 736 735 733 731 729 728 727 727 723 724 726 726 726 727 726 724 722 723 719 717 715 712 710 708 707 707 707 706 705 704 704 705 705
736 733 731 729 728 727 728 725 722 719 718 718 718 716 715 716 718 719 719 720 718 717 718 716 712 710 708 704 702 700 699 700 699 698 698 699 700 700
728 725 723 722 720 718 718 716 714 710 711 710 709 708 707 708 710 711 712 713 713 712 711 712 710 711 705 699 697 697 697 696 695 696 695 695 695 695
720 717 714 712 710 709 709 707 706 704 703 703 702 701 701 701 701 703 705 706 708 707 708 709 706 706 707 701 694 693 693 693 692 692 693 693 691 690
712 709 706 705 703 701 700 699 698 697 696 695 695 695 694 694 694 696 697 699 701 702 702 704 702 701 701 700 696 690 689 690 689 690 689 690 688 686
703 700 697 694 693 691 690 689 689 689 688 688 688 687 687 686 687 689 690 692 694 696 695 698 697 696 696 693 692 688 688 685 687 685 685 686 684 682
693 690 687 685 683 682 682 681 680 680 680 680 680 679 680 681 681 682 684 686 687 688 688 689 690 690 689 688 687 684 683 683 681 680 681 681 680 679
684 679 677 675 674 673 672 673 673 673 673 673 673 672 673 674 674 675 678 680 681 681 681 681 683 683 682 682 681 678 676 676 675 677 677 676 675 675
675 671 668 667 666 665 664 663 663 663 663 664 664 664 665 665 667 669 671 673 674 673 673 674 676 677 676 674 673 670 670 669 669 670 670 671 670 670
671 665 661 660 658 657 656 656 655 655 656 656 657 657 658 659 661 662 663 667 668 667 667 668 669 670 668 665 663 664 663 663 664 664 664 664 665 665
668 663 659 656 654 652 651 650 649 649 649 650 650 650 651 652 654 655 657 659 660 660 660 661 661 661 660 658 657 656 655 656 656 656 657 659 660 661
665 660 657 653 650 648 646 644 643 643 643 643 643 644 644 645 646 648 649 651 652 652 652 652 652 654 653 654 651 649 648 649 651 651 652 654 656 659
662 657 653 650 647 644 641 639 637 636 636 636 636 637 638 639 640 641 642 643 644 644 645 645 646 646 647 645 643 643 642 643 645 646 648 649 652 653
661 655 650 645 642 639 636 634 631 630 630 630 631 631 632 633 634 634 635 636 637 638 639 639 640 640 639 638 637 636 637 638 641 643 646 647 648 649